Theta_e
318 318 318 318 318 318 319 319 319 320 320 321 321 322 323 322 321 318 311 315 321 334 331 318 319 316 316 314 315 315 307 305 307 306 308 312 308 311 313 310 312 313 313 316 318
318 317 317 317 318 318 318 319 319 320 320 321 321 321 323 322 320 312 315 331 334 335 318 312 312 315 314 312 314 309 307 306 309 309 307 308 307 307 307 307 309 310 313 315 316
318 317 317 317 317 318 318 318 319 319 320 320 320 321 323 322 314 311 330 329 335 330 315 313 314 313 309 311 309 309 306 308 307 307 307 306 307 308 306 305 308 307 309 313 313
319 318 317 317 317 317 317 318 318 319 319 320 320 321 323 319 303 312 329 330 335 322 313 312 311 308 307 306 307 304 306 306 306 307 306 305 307 306 306 307 310 310 311 311 312
319 318 316 316 316 317 317 318 318 318 318 319 320 321 318 311 308 317 331 327 318 313 310 309 308 308 305 305 306 306 305 306 307 307 307 307 306 306 306 309 311 311 311 311 312
318 318 317 316 316 317 317 318 317 317 318 319 320 321 318 304 314 316 316 315 314 313 310 310 307 309 306 305 305 307 305 305 307 306 307 304 305 306 308 310 310 311 311 311 312
316 316 317 316 316 317 317 317 316 317 319 320 322 322 315 308 315 316 316 313 314 313 310 311 311 308 307 305 307 305 302 305 306 305 305 306 302 304 309 310 309 310 311 312 312
316 315 316 316 316 316 316 316 317 319 320 321 323 321 309 315 318 314 315 314 315 315 313 313 312 309 307 308 305 303 303 299 305 306 305 303 299 306 310 309 309 309 310 310 312
316 315 316 316 315 315 315 315 320 321 322 323 321 317 307 314 312 314 315 311 312 314 313 312 311 308 306 303 302 303 299 299 301 306 304 303 300 307 311 310 308 308 309 311 314
316 315 315 316 315 314 314 315 322 319 321 321 316 309 309 307 311 312 315 312 310 310 310 309 307 304 305 302 296 298 298 299 299 304 305 303 303 307 310 309 307 307 311 312 312
317 315 315 315 314 314 314 317 313 312 315 310 310 307 307 311 313 311 313 311 311 309 304 306 301 300 302 302 301 300 299 298 302 305 302 302 303 306 308 308 306 309 309 310 311
316 316 315 315 313 313 315 312 312 312 306 312 311 310 310 311 305 309 313 307 307 302 304 302 300 304 302 301 300 300 299 299 302 303 303 302 302 306 307 305 308 308 309 310 311
315 315 315 314 312 313 312 313 318 317 307 309 310 308 309 309 305 307 310 307 304 301 302 300 302 303 300 300 298 300 299 299 298 302 304 303 301 303 304 306 309 310 310 311 311
314 315 315 312 311 315 310 315 318 320 302 304 305 308 309 309 304 311 310 306 302 300 301 301 304 299 299 299 300 296 301 300 299 299 296 303 293 301 304 304 307 309 310 309 310
313 315 314 310 316 312 314 318 319 319 291 306 307 312 309 305 307 307 310 305 300 301 300 300 300 299 298 299 300 297 302 300 301 300 299 300 296 300 304 301 304 307 308 309 311
313 314 313 313 318 316 318 319 318 301 292 300 306 303 303 304 304 306 304 308 306 301 303 301 304 301 301 301 301 303 301 303 304 300 294 300 298 297 301 303 304 306 307 309 310
312 313 313 317 313 318 318 314 300 294 303 299 298 301 302 301 301 302 301 301 299 297 297 301 300 302 302 299 304 302 300 296 294 294 293 300 296 299 304 306 305 304 306 309 310
309 309 316 318 320 317 315 304 294 300 302 302 300 300 298 300 300 301 299 298 302 299 296 295 294 300 303 300 299 299 298 294 286 290 293 299 293 302 307 308 307 307 308 309 310
307 316 319 320 320 319 308 297 297 302 304 301 299 297 297 299 298 299 299 299 302 301 296 296 295 302 301 302 301 300 297 302 294 296 292 296 301 305 307 305 307 308 308 308 308
313 314 313 321 322 316 304 296 301 306 305 302 296 299 296 299 297 297 298 301 300 301 302 300 293 300 301 302 302 300 303 294 296 287 287 293 295 297 302 304 306 305 306 308 308
311 305 315 321 319 309 298 300 303 306 306 302 298 298 299 298 298 298 297 300 302 300 302 301 298 298 300 298 298 299 296 297 297 295 289 288 293 304 303 304 304 306 307 307 306
306 299 317 321 304 305 300 303 302 304 307 304 302 301 300 300 298 297 297 300 303 303 297 301 300 294 297 302 303 301 299 299 293 290 293 291 291 305 306 305 306 305 307 307 307
301 300 311 314 297 297 303 302 304 303 303 301 300 301 302 300 297 299 300 303 303 302 299 303 297 293 295 299 302 297 299 300 298 295 291 288 292 307 307 307 307 306 307 306 307
301 294 301 307 307 301 299 300 300 304 303 303 301 302 300 298 301 297 299 300 302 302 305 302 299 296 292 295 299 296 298 299 297 291 292 293 296 301 304 305 306 307 307 306 305
300 297 301 295 297 298 301 301 298 298 303 303 300 300 298 296 297 298 300 300 300 304 302 301 294 297 298 298 298 297 297 297 296 297 292 295 296 300 304 305 305 307 306 305 303
296 296 301 298 299 297 296 296 295 299 299 296 298 300 300 298 298 298 300 301 299 301 300 303 295 298 295 298 298 295 297 298 298 298 298 298 298 305 307 307 305 306 305 303 302
302 305 298 294 294 293 293 296 295 299 298 302 299 296 299 301 304 305 306 305 304 301 299 299 297 296 291 297 296 293 297 299 299 301 299 296 301 304 303 304 305 305 304 302 301
Wind_Speed
19 17 16 15 14 13 12 13 12 13 12 11 11 12 12 11 13 7 12 6 9 13 10 6 6 5 8 3 7 6 8 10 6 2 6 7 8 7 9 11 10 9 10 13 17
19 18 17 16 14 14 15 14 12 12 11 11 12 13 13 14 14 12 4 5 10 14 11 3 3 6 5 3 3 8 8 9 9 8 7 10 9 9 9 8 10 10 12 12 14
20 19 18 16 16 13 13 14 13 11 10 10 11 12 15 16 10 12 2 4 9 18 4 4 5 7 3 3 1 2 7 9 5 7 8 9 10 9 10 10 10 11 15 14 16
22 21 19 17 16 15 14 13 13 11 9 9 10 11 13 11 2 9 1 4 11 14 3 3 6 6 3 3 1 10 1 3 4 3 8 9 10 10 8 11 9 8 12 14 16
21 23 22 19 16 14 13 13 12 11 9 8 9 9 10 6 11 10 6 9 12 3 4 4 2 4 5 2 6 10 2 4 5 7 7 9 13 12 14 6 7 9 11 13 13
22 22 21 20 18 15 13 11 11 10 9 7 8 9 13 5 6 4 1 4 6 5 5 7 4 9 1 4 9 5 7 9 8 7 6 11 14 13 14 6 11 11 13 13 13
25 24 22 20 18 16 14 12 10 8 8 7 7 9 18 8 2 6 5 3 4 6 3 4 6 9 3 6 1 8 12 9 11 3 9 9 17 10 4 11 14 14 12 13 13
26 25 23 20 18 17 16 13 8 6 6 7 8 12 3 3 3 7 3 6 2 2 3 5 6 6 8 4 11 10 8 13 14 8 0 5 13 7 10 11 15 15 13 11 12
24 24 23 21 19 17 15 12 4 4 7 8 11 11 4 7 9 1 7 4 4 5 1 6 7 7 5 12 12 10 10 6 10 5 8 8 16 16 13 12 11 10 8 11 12
23 23 22 21 19 16 14 7 4 4 8 8 9 9 6 8 3 3 3 6 5 7 9 7 7 8 10 11 8 9 12 11 11 6 11 15 19 17 12 12 8 4 7 9 11
24 24 23 22 20 14 11 6 8 10 15 15 1 11 3 3 6 5 2 7 6 10 11 3 9 14 3 4 9 11 13 14 13 8 9 15 19 19 13 9 4 4 6 8 11
24 25 25 24 21 16 7 8 8 7 11 20 13 10 0 2 6 7 5 9 7 12 3 11 14 7 1 7 10 11 13 15 10 4 13 19 18 19 11 7 4 4 5 8 10
24 24 25 26 21 7 7 5 7 6 9 15 15 15 13 12 9 4 5 5 12 13 10 11 7 7 5 10 11 13 12 11 13 16 22 19 23 12 8 7 10 8 4 8 11
24 25 25 28 5 6 5 1 5 4 8 14 16 12 9 10 8 2 3 7 7 9 3 11 8 6 10 12 7 12 4 10 15 13 10 7 8 13 19 15 14 9 6 8 11
26 25 26 11 12 10 7 6 3 5 9 10 13 8 9 13 8 12 3 8 12 8 6 5 7 11 12 10 2 11 11 16 16 16 14 18 10 14 12 15 15 3 5 8 11
26 26 24 3 9 10 3 2 6 9 12 9 8 11 14 15 9 5 8 6 4 9 12 15 3 8 12 3 10 11 17 19 16 10 9 14 10 9 5 3 4 2 6 9 14
27 30 18 10 8 6 3 7 9 10 4 10 8 12 17 14 11 9 12 14 12 10 15 15 13 9 6 12 12 12 13 5 6 10 10 6 8 15 7 7 2 4 8 13 18
30 31 6 8 11 6 7 10 17 12 16 7 5 13 18 14 11 12 11 14 10 10 10 9 13 15 11 10 8 7 6 5 6 7 12 19 10 4 7 8 2 3 8 13 17
30 10 11 7 6 5 8 15 17 18 13 5 10 14 17 16 7 12 17 16 9 12 7 5 7 10 5 6 6 7 6 10 7 15 12 11 14 15 13 6 10 10 12 17 20
12 13 11 7 5 8 11 20 23 21 18 10 19 13 14 18 13 13 14 8 11 8 4 3 6 11 8 6 11 11 7 4 4 7 8 10 17 8 6 5 10 12 17 17 19
9 8 7 3 5 10 14 20 22 25 27 18 23 23 17 18 18 16 7 8 10 12 7 3 5 9 8 12 10 9 10 7 4 8 6 9 5 4 8 7 11 14 17 15 20
7 9 8 3 10 10 16 24 22 25 22 18 22 22 22 16 17 18 18 11 14 12 9 8 7 8 13 5 3 11 13 13 6 6 7 9 14 11 2 4 13 14 17 18 19
8 13 13 4 12 14 21 26 25 22 20 22 21 19 22 20 11 16 15 7 14 14 7 9 7 5 8 7 8 10 12 13 7 8 15 12 9 6 10 15 14 18 15 17 19
7 8 9 9 11 18 20 22 25 20 23 23 22 21 20 20 17 9 15 11 13 16 9 2 8 10 8 5 10 8 13 17 16 12 16 21 25 23 23 21 19 20 17 17 19
7 7 9 10 16 23 19 18 23 24 23 19 20 23 21 17 20 22 16 14 15 13 12 13 10 14 18 19 19 19 20 20 22 23 22 23 27 25 24 18 16 16 17 18 19
7 9 8 12 18 22 19 21 21 26 21 19 24 23 21 19 20 16 18 19 16 18 18 15 10 10 17 17 19 23 22 23 25 24 26 26 25 19 12 9 15 17 17 18 18
8 3 5 8 15 16 16 21 18 15 15 21 18 20 21 21 20 20 16 13 9 14 18 18 13 10 14 14 15 15 17 19 22 20 18 19 18 15 17 16 15 16 16 15 16
Wind_Direction
6 2 357 353 354 348 343 342 342 338 334 330 324 318 316 314 296 216 52 18 328 312 308 252 214 199 223 214 258 268 260 252 291 48 5 24 345 334 336 297 312 302 302 344 336
5 2 357 351 351 348 343 342 340 337 332 330 323 316 314 319 259 73 58 330 309 298 274 303 182 218 186 199 201 254 260 19 25 4 326 334 331 325 321 309 292 341 334 336 333
3 1 357 351 346 344 342 339 337 334 330 324 316 311 312 312 247 66 140 297 297 292 317 297 249 254 202 235 93 117 306 37 47 29 324 319 300 342 300 294 0 318 321 329 326
358 359 356 351 345 342 339 338 334 330 324 316 309 310 318 280 6 61 100 291 275 278 285 248 217 223 249 210 296 257 74 334 350 324 301 306 323 290 315 307 326 309 316 315 316
354 355 353 348 345 340 336 333 331 324 316 309 303 315 293 203 94 116 205 213 251 307 349 316 337 273 241 266 246 256 139 258 267 290 290 311 293 301 292 316 286 300 295 299 304
354 351 350 347 341 338 333 329 323 316 302 293 293 306 250 161 98 124 102 223 5 354 22 355 0 336 296 284 265 36 280 282 265 278 279 307 294 293 280 346 302 305 303 303 313
352 352 348 345 339 335 332 327 317 304 284 273 279 286 274 73 261 158 235 33 8 1 354 15 322 268 350 232 215 278 269 253 232 226 278 339 272 227 359 307 305 304 311 320 317
350 350 347 343 340 334 331 321 301 283 267 272 285 276 306 141 289 225 222 201 177 7 348 335 292 297 281 326 247 257 257 255 139 204 248 243 289 280 324 292 299 308 314 313 346
348 345 346 342 338 333 326 320 277 217 238 252 262 228 216 130 215 65 258 292 309 243 86 303 264 292 241 244 245 187 272 287 291 180 252 235 286 285 294 295 295 295 320 344 333
345 344 344 342 337 330 320 287 196 224 218 232 260 269 181 211 96 295 205 272 293 291 233 247 245 244 217 234 289 336 311 295 284 288 238 281 281 286 298 281 284 314 315 336 339
344 343 341 341 335 328 309 204 205 201 219 234 77 247 102 137 205 213 224 252 240 242 258 230 273 234 108 23 306 290 275 273 271 293 301 270 284 281 278 271 232 296 330 336 338
340 340 339 338 330 319 270 273 26 329 288 222 249 254 207 198 221 206 257 243 223 270 256 234 237 84 19 285 276 265 267 269 302 226 291 288 277 276 251 211 230 268 303 322 326
336 336 335 330 324 280 297 354 316 304 263 255 209 216 192 217 243 187 251 283 257 266 239 270 19 95 253 273 249 254 274 297 308 305 276 266 271 212 178 215 201 237 288 319 328
333 333 331 326 289 345 253 332 276 323 270 220 193 227 179 230 229 139 235 278 244 274 285 267 141 221 270 263 257 277 54 295 291 295 296 312 299 201 194 199 225 211 273 329 327
332 328 325 323 313 279 34 308 329 227 275 111 165 94 202 204 104 174 185 237 260 265 222 66 213 251 259 262 125 278 326 290 281 276 280 266 235 271 158 221 226 182 330 309 316
328 323 333 178 227 278 287 292 242 232 252 155 155 203 195 210 201 133 222 204 323 248 227 270 63 270 259 306 249 292 277 270 256 254 259 252 241 280 293 219 48 298 296 313 319
327 317 318 303 289 7 282 236 240 242 100 178 200 208 210 204 215 214 217 212 230 221 211 197 220 206 245 255 214 232 280 307 258 193 234 115 254 255 264 170 266 315 311 325 312
325 311 256 256 299 260 252 238 246 267 244 109 205 195 230 223 220 203 241 239 220 249 283 247 184 193 183 250 320 296 307 279 270 272 308 327 271 261 66 99 152 254 280 299 325
314 310 286 226 223 225 239 235 240 249 267 229 203 229 223 233 246 203 226 248 222 204 241 265 220 138 206 234 247 126 259 28 308 264 249 237 252 194 132 180 224 251 314 323 339
319 301 278 72 193 222 231 244 264 266 301 269 254 236 247 204 206 216 224 198 202 204 242 142 266 188 156 232 230 258 27 224 211 275 294 295 303 306 166 251 0 324 329 327 325
276 295 83 328 210 229 241 246 248 251 262 248 264 266 260 265 198 238 254 145 188 182 211 189 208 146 173 211 234 176 223 228 274 272 280 304 279 74 325 356 310 325 315 331 326
294 284 115 286 260 241 248 250 251 265 279 266 263 274 272 248 245 235 241 244 175 185 207 204 194 252 232 142 271 275 271 183 220 243 251 291 277 290 345 260 308 312 324 340 320
298 289 270 271 256 255 260 261 266 264 274 262 248 246 266 257 242 255 229 219 169 191 211 152 219 251 208 189 209 238 227 240 227 265 258 276 266 142 223 263 295 325 343 330 322
289 299 300 220 247 274 278 279 282 276 258 257 260 255 254 255 241 243 221 169 198 208 112 157 234 233 250 307 333 247 224 231 208 232 255 255 275 284 300 311 326 320 331 321 321
252 282 343 297 302 313 309 299 292 274 271 264 255 244 248 245 251 226 233 178 196 188 183 219 247 249 257 262 269 267 261 257 250 229 234 267 279 286 285 305 309 317 315 323 321
296 325 339 296 296 291 283 279 277 281 285 306 297 252 238 237 230 268 225 222 195 198 211 202 254 257 270 272 269 270 266 262 256 255 261 267 273 292 346 310 309 315 330 316 320
306 73 283 276 272 273 275 276 276 294 306 281 274 328 275 248 244 230 249 271 208 234 197 221 229 249 271 273 279 274 265 269 258 252 260 270 292 322 304 305 322 329 317 322 329